Regional Weather Roundup
Issued by NWS Green Bay, WI

Home | Current Version | Previous Version | Graphics & Text | Print | Product List | Glossary Off
Versions: 1 2 3 4 5 6 7 8 9 10 11 12 13 14 15 16 17 18 19 20 21 22 23 24 25 26 27 28 29 30 31 32 33 34 35 36 37 38 39 40 41 42 43 44 45 46 47 48 49 50

842
ASUS43 KGRB 100200
RWRGRB

NORTH-CENTRAL AND NORTHEAST WISCONSIN REGIONAL WEATHER ROUNDUP
NATIONAL WEATHER SERVICE GREEN BAY WI
800 PM CST FRI DEC 09 2016

WIZ005-009-010>012-018-019-100300-
NORTH CENTRAL WISCONSIN

CITY           SKY/WX    TMP DP  RH WIND       PRES   REMARKS
IRONWOOD       FLURRIES  11   1  64 W14       30.40S WCI  -5
MANITOWISH WTR NOT AVBL
ARBOR VITAE    NOT AVBL
EAGLE RIVER    NOT AVBL
LAND O LAKES   NOT AVBL
RHINELANDER    CLOUDY    15   9  76 NW6       30.35F WCI   6
PHILLIPS       NOT AVBL
ANTIGO         NOT AVBL
TOMAHAWK       NOT AVBL
MERRILL        NOT AVBL
$$

WIZ013-073-100300-
NORTHEAST WISCONSIN

CITY           SKY/WX    TMP DP  RH WIND       PRES   REMARKS
IRON MOUNTAIN  PTCLDY    15   2  56 W7        30.36F WCI   5
MARINETTE      CLOUDY    20   6  55 NW8       30.43S
$$

WIZ017-030-035>037-045-100300-
CENTRAL WISCONSIN

CITY           SKY/WX    TMP DP  RH WIND       PRES   REMARKS
MEDFORD        NOT AVBL
WAUSAU         CLOUDY    15   8  73 W10       30.40F WCI   2
MOSINEE        CLOUDY    16   9  73 W8        30.42F WCI   5
MARSHFIELD     LGT SNOW  15  10  80 W13       30.41S WCI   1
WISC RAPIDS    CLOUDY    17  11  77 NW3       30.45S
STEVENS POINT  NOT AVBL
WAUPACA        NOT AVBL
SHAWANO        NOT AVBL
CLINTONVILLE   NOT AVBL
WAUTOMA        CLOUDY    15  11  83 CALM      30.46F
$$

WIZ038-039-048-051-100300-
FOX VALLEY

CITY           SKY/WX    TMP DP  RH WIND       PRES   REMARKS
NWS GREEN BAY  CLOUDY    22   9  57 W8        30.44F
APPLETON       MOCLDY    16   7  67 W6        30.42F WCI   7
OSHKOSH        CLOUDY    18   8  65 W3        30.45F
FOND DU LAC    CLOUDY    18   7  62 W3        30.46S
$$

WIZ022-050-052-100300-
EAST CENTRAL WISCONSIN

CITY           SKY/WX    TMP DP  RH WIND       PRES   REMARKS
EPHRAIM        NOT AVBL
WASHINGTON ISL NOT AVBL
STURGEON BAY   CLOUDY    21   8  57 W10G20    30.41F WCI  10
MANITOWOC      NOT AVBL
SHEBOYGAN      PTCLDY    18   8  65 W6        30.45F WCI  10
$$

LMZ563-521-522-541>543-100300-
LAKESHORE

STATION/POSITION TIME  TEMP    WIND        PRES    VSBY  WAVE
                       AIR SEA DIR/SP/G                  HT/PER
                 (UTC) (F)     (DEG/KT/KT) (MB)    (MI)  (FT/S)
SHEBOYGAN LKSHOR 0100   21     280/  8/ 10 1032.4R
KEWAUNEE LKSHORE 0130   22     300/ 10/ 17 1029.8F
ALGOMA MARINA    0121          320/  9/ 13   N/A
NORTHPORT PIER   0050   25     280/ 10/ 22 1029.1S
SISTER BAY LKSHO 0120   24     310/ 20/ 24   N/A
MENOMINEE LKSHOR 0130   21     270/ 11/ 16 1029.3S
$$




USA.gov is the U.S. government's official web portal to all federal, state and local government web resources and services.